Flag for U.S.A. Weather past 2 weeks in Alpena, Michigan, U.S.A.

Now
83 °F

Passing clouds.


Feels Like: 86 °F
Forecast: 58 / 68 °F
Wind: 7 mph from Southwest

Location: Alpena County Regional Airport

Current Time: Jul 22, 2014 at 8:48:06 PM

Latest Report: Jul 22, 2014 at 7:54 PM


Visibility: 10 mi

Pressure: 29.83 "Hg

Humidity: 63%

Dew point: 69 °F

Location of AlpenaLocation

Historic Weather in Alpena — Graph

°F

Alpena temperature yesterday

Maximum temperature yesterday: 85 °F (at 4:54 PM)
Minimum temperature yesterday: 57 °F (at 5:54 AM)
Average temperature yesterday: 73 °F

Past Weeks' High & Low Weather Summary

 TemperatureHumidityPressure
High85 °F (Jul 21, 4:54 PM)100% (Jul 15, 4:54 AM)30.22 "Hg (Jul 15, 4:54 AM)
Low45 °F (Jul 11, 3:54 AM)31% (Jul 17, 3:54 PM)29.48 "Hg (Jul 8, 11:54 AM)
Average65 °F73%29.95 "Hg
* Reported Jul 7 12:54 PM — Jul 22 12:54 PM, Alpena, Weather by CustomWeather, © 2014

Note: Actual official high and low records may vary slightly from our data, if they occured in-between our weather recording intervals... More about our weather records

Advertising

Alpena weather history for previous 24 hours

 ConditionsComfort  
Time TempWeatherWind HumidityBarometerVisibility
12:54 PM
Jul 22
85 °FSunny.17 mph50%29.88 "Hg10 mi
11:54 AM83 °FSunny.15 mph55%29.91 "Hg10 mi
10:54 AM81 °FSunny.12 mph58%29.95 "Hg10 mi
9:54 AM79 °FSunny.13 mph62%29.99 "Hg10 mi
8:54 AM75 °FSunny.10 mph71%30.01 "Hg10 mi
7:54 AM70 °FPassing clouds.5 mph84%30.04 "Hg10 mi
6:54 AM69 °FPassing clouds.6 mph84%30.04 "Hg9 mi
5:54 AM67 °FOvercast.3 mph87%30.03 "Hg9 mi
4:54 AM66 °FPassing clouds.5 mph90%30.03 "Hg8 mi
3:54 AM64 °FPassing clouds.No wind94%30.03 "Hg7 mi
2:54 AM69 °FClear.3 mph84%30.04 "Hg10 mi
1:54 AM71 °FPassing clouds.3 mph78%30.04 "Hg10 mi
12:54 AM73 °FPassing clouds.6 mph74%30.05 "Hg10 mi
11:54 PM
Jul 21
74 °FClear.6 mph71%30.05 "Hg10 mi
10:54 PM75 °FPassing clouds.6 mph71%30.05 "Hg10 mi
9:54 PM74 °FOvercast.6 mph76%30.05 "Hg8 mi
8:54 PM77 °FSunny.5 mph66%30.03 "Hg10 mi
Weather by CustomWeather, © 2014

See weather overviewHow to use our weather pages